STARLINK-34428

Satellite information

Favourite Embed

Satellite Type and Status

PAYLOADIN ORBIT

Key statistics

Satellite STARLINK-34428 at a glance.

Uptime

188

Days in orbit

Revolutions

≈ 15.0

Per day

Orbit

LEO

Low Earth Orbit

Inclination

70.0

Latest

Satellite identification and parameters

Extended collection of information and parameters for STARLINK-34428.

Object identification

Identified? True

Debris? False

Object name: STARLINK-34428

International designator: 2025-123C

Object number (NORAD): 64293

Object ID (CCSDS): 64293

Country: UNITED STATES OF AMERICA (US)

Current information (Y/N): Y

RCS size: LARGE

Orbital parameters

Period: 96.106 minutes

Inclination: 70.0033 deg

SMA: 6950.16 km

Apoapsis: 573.831 km

Periapsis: 570.219 km

RAAN: 54.6439 deg

Eccentricy: 0.00025987

Argument of periapsis: 232.3864 deg

Mean anomaly: 127.7059 deg

Mean motion: 14.98340611 rev/day

Mean motion (dot): 0.00007847 rev/day2

B* drag term: 0.00066456098 1/REarth

Two-line elements (TLE)

Creation date: Dec. 12, 2025, 10:14 a.m.

Reference frame: TEME

Reference center: EARTH

Epoch: Dec. 12, 2025, 7:34 a.m. UTC

TLE line 0: 0 STARLINK-34428

TLE line 1: 1 64293U 25123C 25346.31564442 .00007847 00000-0 66456-3 0 9992

TLE line 2: 2 64293 70.0033 54.6439 0002599 232.3864 127.7059 14.98340611 29754

Live tracking on map

Real-time ground track for satellite STARLINK-34428.

In-orbit conjunctions

There are no conjunctions computed for STARLINK-34428, at the moment. Check back to stay up to date, as we update our databases every day.

Go to all conjunctions

Associated space launch

A batch of 26 satellites for the Starlink mega-constellation - SpaceX's project for space-based Internet communication system.

STARLINK-34428 was lifted into orbit during the mission ‘Falcon 9 Block 5 | Starlink Group 15-8’, on board a Falcon 9 space rocket.

The launch took place on June 8, 2025, 2:20 p.m. from Space Launch Complex 4E.

For more information about the launch, click the button.

Launch to space Falcon 9 Block 5 | Starlink Group 15-8
Falcon 9 Block 5 | Starlink Group 15-8

Agency: SpaceX

Status: Launch Successful

Launch date: June 8, 2025, 2:20 p.m. UTC

Rocket: Falcon 9

Launch pad: Space Launch Complex 4E

Location: Vandenberg SFB, CA, USA

...

Latest news about this satellite

News about space launch
Live coverage: SpaceX to launch 26 Starlink satellites on Falcon 9 rocket from Vandenberg SFB

The mission, dubbed Starlink 15-8, will be SpaceX’s 70th Falcon 9 launch of the year. It’s targeting a liftoff from pad 4 East at 6:34 a.m. PDT (9:34 a.m. EDT, 1334 UTC).

News about space launch
Launch Roundup: Falcon 9 to launch crewed mission, Rocket Lab to launch 65th Electron

SpaceX continues to dominate the launch manifest with five missions this week, including a crewed… The post Launch Roundup: Falcon 9 to launch crewed mission, Rocket Lab to launch 65th Electron appeared first on NASASpaceFlight.com.


Newsletter sign-up

Weekly statistics, charts and insights to help you stay on top of the space industry.